GW1699 Weather Reports


time (UTC)temp
C
wind
direction
speed
KPH
gust
KPH
rain 1hr
cm
rain 24hr
cm
rain mn
cm
humidity
%
barometer
mb
20260504040030 8 198 0.0 0.0 0.00 0.00 0.00 70 1013.5
20260504035428 8 198 0.0 0.0 0.00 0.00 0.00 72 1013.5
20260504034215 8 206 0.0 0.0 0.00 0.00 0.00 74 1013.5
20260504033612 8 200 0.0 0.0 0.00 0.00 0.00 72 1013.8
20260504033036 8 199 0.0 0.0 0.00 0.00 0.00 73 1013.8
20260504031244 8 201 0.0 0.0 0.00 0.00 0.00 70 1013.8
20260504030018 8 201 0.0 0.0 0.00 0.00 0.00 72 1013.5
20260504025414 8 201 0.0 0.0 0.00 0.00 0.00 70 1013.5
20260504024824 8 201 0.0 0.0 0.00 0.00 0.00 69 1013.5
20260504024220 8 202 0.0 0.0 0.00 0.00 0.00 71 1013.8
20260504023633 8 201 0.0 0.0 0.00 0.00 0.00 68 1013.5
20260504023027 8 201 0.0 0.0 0.00 0.00 0.00 66 1013.5
20260504022437 8 201 0.0 0.0 0.00 0.00 0.00 68 1013.8
20260504021834 8 201 0.0 0.0 0.00 0.00 0.00 68 1013.8
20260504020620 9 202 0.0 0.0 0.00 0.00 0.00 74 1013.8
20260504020020 9 202 0.0 0.0 0.00 0.00 0.00 65 1013.8
20260504015443 9 202 0.0 0.0 0.00 0.00 0.00 66 1013.8
20260504014826 9 202 0.0 0.0 0.00 0.00 0.00 64 1013.8
20260504014244 9 199 0.0 0.0 0.00 0.00 0.00 65 1013.5
20260504013650 9 198 0.0 0.0 0.00 0.00 0.00 67 1013.8
20260504012412 10 201 0.0 0.0 0.00 0.00 0.00 72 1013.8
20260504011837 10 201 0.0 0.0 0.00 0.00 0.00 64 1013.8
20260504011214 10 201 0.0 0.0 0.00 0.00 0.00 67 1013.8
20260504010635 10 201 0.0 0.0 0.00 0.00 0.00 66 1013.8
20260504010049 10 201 0.0 0.0 0.00 0.00 0.00 69 1013.8
20260504005438 10 202 0.0 0.0 0.00 0.00 0.00 67 1013.8
20260504004247 10 202 0.0 0.0 0.00 0.00 0.00 60 1013.5
20260504003614 10 201 0.0 0.0 0.00 0.00 0.00 70 1013.5
20260504003040 10 199 0.0 0.0 0.00 0.00 0.00 70 1013.2
20260504002436 10 198 0.0 0.0 0.00 0.00 0.00 69 1013.5
20260504001818 10 198 0.0 0.0 0.00 0.00 0.00 67 1013.5
20260504001219 11 198 0.0 0.0 0.00 0.00 0.00 68 1013.2
20260504000654 11 190 0.0 0.0 0.00 0.00 0.00 67 1013.2
20260504000042 11 197 0.0 0.0 0.00 0.00 0.00 66 1013.5
20260503235412 11 192 0.0 0.0 0.00 0.00 0.00 64 1013.5
20260503234815 11 194 0.0 0.0 0.00 0.00 0.00 60 1013.5
20260503234236 11 192 0.0 0.0 0.00 0.00 0.00 60 1013.5
20260503233627 11 191 0.0 1.6 0.00 0.00 0.00 59 1013.5
20260503233035 12 185 1.6 1.6 0.00 0.00 0.00 50 1013.5
20260503232447 12 197 0.0 0.0 0.00 0.00 0.00 58 1013.5
20260503231818 12 189 0.0 1.6 0.00 0.00 0.00 53 1013.8
20260503231252 13 195 1.6 1.6 0.00 0.00 0.00 48 1013.5
20260503230636 14 180 1.6 1.6 0.00 0.00 0.00 45 1013.5
20260503230041 14 147 0.0 1.6 0.00 0.00 0.00 45 1013.5
20260503224223 14 202 0.0 0.0 0.00 0.00 0.00 44 1013.8
20260503223614 14 183 1.6 1.6 0.00 0.00 0.00 48 1013.5
20260503223014 14 183 1.6 1.6 0.00 0.00 0.00 46 1013.8
20260503222422 15 203 0.0 0.0 0.00 0.00 0.00 36 1013.5
20260503221820 15 163 3.2 3.2 0.00 0.00 0.00 35 1013.8
20260503221224 15 188 1.6 1.6 0.00 0.00 0.00 33 1013.8
20260503220654 15 247 1.6 1.6 0.00 0.00 0.00 33 1013.8
20260503220044 15 274 1.6 1.6 0.00 0.00 0.00 36 1013.8
20260503215439 15 212 1.6 3.2 0.00 0.00 0.00 32 1013.8
20260503214810 15 91 1.6 1.6 0.00 0.00 0.00 37 1013.8
20260503214224 15 250 3.2 3.2 0.00 0.00 0.00 38 1013.5
20260503213647 15 214 1.6 1.6 0.00 0.00 0.00 32 1013.8
20260503212440 15 42 1.6 1.6 0.00 0.00 0.00 38 1013.5
20260503211827 15 227 3.2 4.8 0.00 0.00 0.00 42 1013.8
20260503211227 15 167 0.0 1.6 0.00 0.00 0.00 35 1013.5
20260503210647 15 259 3.2 4.8 0.00 0.00 0.00 34 1013.8
20260503210017 15 87 0.0 1.6 0.00 0.00 0.00 35 1014.2
20260503205430 15 157 1.6 1.6 0.00 0.00 0.00 34 1013.8
20260503204242 15 224 0.0 0.0 0.00 0.00 0.00 33 1013.8
20260503203038 15 254 1.6 3.2 0.00 0.00 0.00 33 1014.2
20260503202422 15 176 0.0 1.6 0.00 0.00 0.00 34 1014.2
20260503201816 14 61 0.0 1.6 0.00 0.00 0.00 35 1014.5
20260503201234 14 240 1.6 4.8 0.00 0.00 0.00 37 1014.5
20260503200625 14 208 3.2 4.8 0.00 0.00 0.00 33 1014.5
20260503200026 14 240 4.8 4.8 0.00 0.00 0.00 34 1014.9
20260503195409 15 172 3.2 3.2 0.00 0.00 0.00 34 1014.9
20260503194821 14 85 3.2 6.4 0.00 0.00 0.00 37 1015.2
20260503194241 13 191 1.6 1.6 0.00 0.00 0.00 33 1015.5
20260503193621 14 184 4.8 4.8 0.00 0.00 0.00 34 1015.2
20260503193043 15 195 0.0 0.0 0.00 0.00 0.00 35 1015.5
20260503192436 14 239 3.2 6.4 0.00 0.00 0.00 35 1015.5
20260503191842 13 251 4.8 6.4 0.00 0.00 0.00 36 1015.5
20260503191249 14 193 0.0 1.6 0.00 0.00 0.00 41 1015.5
20260503190636 14 284 3.2 3.2 0.00 0.00 0.00 36 1015.5
20260503190052 13 17 3.2 3.2 0.00 0.00 0.00 41 1015.5
20260503185423 14 285 3.2 3.2 0.00 0.00 0.00 38 1015.9
20260503184846 13 153 3.2 4.8 0.00 0.00 0.00 36 1015.5
20260503184216 13 159 3.2 6.4 0.00 0.00 0.00 34 1015.9
20260503183031 13 198 1.6 1.6 0.00 0.00 0.00 35 1016.2
20260503182446 13 299 3.2 6.4 0.00 0.00 0.00 37 1016.2
20260503181853 12 205 1.6 1.6 0.00 0.00 0.00 37 1015.9
20260503181236 12 169 0.0 1.6 0.00 0.00 0.00 39 1016.2
20260503180651 12 189 1.6 3.2 0.00 0.00 0.00 35 1016.2
20260503180026 12 189 0.0 0.0 0.00 0.00 0.00 38 1016.2
20260503175417 13 177 4.8 6.4 0.00 0.00 0.00 37 1016.5
20260503174820 13 336 3.2 3.2 0.00 0.00 0.00 43 1016.5
20260503174213 12 159 3.2 3.2 0.00 0.00 0.00 36 1016.5
20260503173628 13 96 8.0 9.7 0.00 0.00 0.00 37 1016.5
20260503173035 12 206 0.0 1.6 0.00 0.00 0.00 38 1016.5
20260503172413 11 111 3.2 3.2 0.00 0.00 0.00 37 1016.5
20260503171814 11 221 1.6 3.2 0.00 0.00 0.00 38 1016.9
20260503171254 11 165 3.2 4.8 0.00 0.00 0.00 42 1016.9
20260503150630 8 51 1.6 3.2 0.00 0.00 0.00 53 1018.2
20260503130620 5 195 0.0 1.6 0.00 0.00 0.00 79 1018.2
20260503110645 -1 198 0.0 0.0 0.00 0.00 0.00 99 1017.2
20260503081246 -1 200 0.0 0.0 0.00 0.00 0.00 99 1016.2
20260503072411 0 201 0.0 0.0 0.00 0.00 0.00 99 1015.5
20260503071838 0 201 0.0 0.0 0.00 0.00 0.00 99 1015.9
20260503071227 0 201 0.0 0.0 0.00 0.00 0.00 99 1015.5
20260503070623 0 200 0.0 0.0 0.00 0.00 0.00 99 1015.5
20260503054237 0 199 0.0 0.0 0.00 0.00 0.00 97 1015.9
20260503053623 0 198 0.0 0.0 0.00 0.00 0.00 97 1015.5
20260503053051 0 200 0.0 0.0 0.00 0.00 0.00 97 1015.5
20260503052424 0 201 0.0 0.0 0.00 0.00 0.00 97 1015.5
20260503051854 0 200 0.0 0.0 0.00 0.00 0.00 96 1015.5
20260503051244 1 201 0.0 0.0 0.00 0.00 0.00 96 1015.5
20260503050649 1 201 0.0 0.0 0.00 0.00 0.00 96 1015.5
20260503050053 1 201 0.0 0.0 0.00 0.00 0.00 95 1015.5
20260503045418 1 201 0.0 0.0 0.00 0.00 0.00 95 1015.5
20260503044845 1 201 0.0 0.0 0.00 0.00 0.00 94 1015.5
20260503044242 1 201 0.0 0.0 0.00 0.00 0.00 94 1015.5
20260503043639 1 201 0.0 0.0 0.00 0.00 0.00 94 1015.5
20260503043016 1 203 0.0 0.0 0.00 0.00 0.00 94 1015.5
20260503042443 1 202 0.0 0.0 0.00 0.00 0.00 93 1015.5
20260503041823 1 200 0.0 0.0 0.00 0.00 0.00 92 1015.5
20260503040623 2 200 0.0 0.0 0.00 0.00 0.00 90 1015.5
20260503040047 2 204 0.0 0.0 0.00 0.00 0.00 90 1015.2